Tracking 29892 objects as of 21-Nov-2024
HD Live streaming from Space Station
objects crossing your sky now

STARLINK-2512

Track STARLINK-2512 now!
10-day predictions
STARLINK-2512 is classified as:


NORAD ID: 48319
Int'l Code: 2021-036AV
Perigee: 553.3 km
Apogee: 555.3 km
Inclination: 53.1 °
Period: 95.6 minutes
Semi major axis: 6925 km
RCS: Unknown
Launch date: April 29, 2021
Source: United States (US)
Launch site: AIR FORCE EASTERN TEST RANGE (AFETR)
Your satellite tracking list
Your tracking list is empty




NASA's NSSDC Master Catalog

Two Line Element Set (TLE):
1 48319U 21036AV  24325.34065728  .00007636  00000-0  53068-3 0  9995
2 48319  53.0545  71.0469 0001444 106.9929 253.1218 15.06420284196533
Source of the keplerian elements: AFSPC